�ϑ��N����,2019/9/26,,,
�ϑ���,�c���V�l,,,
�ϑ��n�_,15,,,
���x�v�ԍ�,39,,,
,,,,
����,�C��,����,����,���l
9:30:00,-999,-999,-999,
9:31:00,-999,-999,-999,
9:32:00,-999,-999,-999,
9:33:00,-999,-999,-999,
9:34:00,24.9,1,3,
9:35:00,25,2,2,
9:36:00,25.5,2,3,
9:37:00,25.9,3,2,
9:38:00,26,1,2,
9:39:00,26,3,1,
9:40:00,25.6,3,3,
9:41:00,25.2,2,1,
9:42:00,25.5,2,2,
9:43:00,25.6,3,3,
9:44:00,25.5,2,1,
9:45:00,25.9,2,1,
9:46:00,25.4,4,0,
9:47:00,25.7,1,1,
9:48:00,25.6,1,2,
9:49:00,25.1,1,0,
9:50:00,25,8,1,
9:51:00,25,1,0,
9:52:00,25.3,0,0,
9:53:00,25.9,1,3,
9:54:00,25.1,8,1,
9:55:00,25.8,8,1,
9:56:00,26.4,3,2,
9:57:00,26.9,3,3,
9:58:00,26.9,8,2,
9:59:00,27,2,0,
10:00:00,27.5,0,0,
10:01:00,27.7,4,0,
10:02:00,27.8,3,3,
10:03:00,28,3,3,
10:04:00,27,3,0,
10:05:00,26.9,4,2,
10:06:00,26,1,0,
10:07:00,25.8,8,0,
10:08:00,26.6,5,0,
10:09:00,26.9,1,0,
10:10:00,27,3,0,
10:11:00,27.3,5,2,
10:12:00,27.1,5,0,
10:13:00,27.2,8,1,
10:14:00,26.2,8,0,
10:15:00,26.4,7,1,
10:16:00,26.5,1,0,
10:17:00,25.8,1,2,
10:18:00,25.5,1,1,
10:19:00,26.7,0,0,
10:20:00,26.9,8,1,
10:21:00,28,0,0,
10:22:00,26.9,2,1,
10:23:00,27,4,1,
10:24:00,27.5,8,0,
10:25:00,26.8,4,0,
10:26:00,27.1,4,2,
10:27:00,27.5,4,3,
10:28:00,27.2,5,1,
10:29:00,27.8,5,0,
10:30:00,28.2,4,2,
10:31:00,28.1,5,0,
10:32:00,26.5,6,2,
10:33:00,27.1,5,0,
10:34:00,27.1,4,3,����
10:35:00,26.9,5,1,
10:36:00,26,3,3,����
10:37:00,27.1,4,1,
10:38:00,26.8,0,0,
10:39:00,28.1,4,2,
10:40:00,28,3,0,
10:41:00,26.7,8,2,
10:42:00,27.9,6,0,
10:43:00,28.7,0,0,
10:44:00,29,3,3,
10:45:00,29,4,3,
10:46:00,28.8,3,3,
10:47:00,28.6,4,2,
10:48:00,29.2,5,0,
10:49:00,28.4,7,0,
10:50:00,28.9,4,3,
10:51:00,28,4,2,
10:52:00,28.2,4,3,
10:53:00,27.9,4,3,
10:54:00,28,3,2,
10:55:00,27.7,3,1,
10:56:00,27.9,4,2,
10:57:00,28,4,1,
10:58:00,28.2,0,0,
10:59:00,28.5,5,0,
11:00:00,29.5,5,0,
11:01:00,29.2,6,1,
11:02:00,29.6,3,2,
11:03:00,28.9,3,3,
11:04:00,29,3,1,
11:05:00,29,5,2,
11:06:00,29.1,4,2,
11:07:00,29.1,4,2,
11:08:00,29.5,4,1,
11:09:00,29,3,3,
11:10:00,28.9,6,2,
11:11:00,28.7,0,0,
11:12:00,28.2,5,1,
11:13:00,27.7,2,2,
11:14:00,27.5,7,1,
11:15:00,27.8,1,0,
11:16:00,28.4,1,1,
11:17:00,28.3,3,2,
11:18:00,29.5,4,3,
11:19:00,30,3,3,����
11:20:00,29.1,3,2,
11:21:00,29.2,0,0,
11:22:00,29.1,8,0,
11:23:00,28.1,8,0,
11:24:00,27,7,0,
11:25:00,27.4,0,0,
11:26:00,28.7,6,0,
11:27:00,28.2,8,0,
11:28:00,28.7,3,2,
11:29:00,28.7,4,3,
11:30:00,29,4,2,
